Flag for Guadeloupe Weather past 2 weeks in Basse-Terre, Guadeloupe

Now
86 °F

Partly sunny.


Feels Like: 87 °F
Forecast: 75 / 82 °F
Wind: 15 mph from Southeast

Location: Le Raizet - Guadeloupe

Current Time: May 25, 2015 at 11:56:10 AM

Latest Report: May 25, 2015 at 11:00 AM


Visibility: N/A

Pressure: 30.04 "Hg

Humidity: 49%

Dew point: 64 °F

Location of Basse-TerreLocation

Historic Weather in Basse-Terre — Graph

°F

Basse-Terre temperature yesterday

Maximum temperature yesterday: 82 °F (at 8:30 AM)
Minimum temperature yesterday: 75 °F (at 5:00 AM)
Average temperature yesterday: 78 °F

Past Weeks' High & Low Weather Summary

 TemperatureHumidityPressure
High90 °F (May 20, 1:30 PM)94% (May 12, 2:30 AM)30.12 "Hg (May 12, 2:30 AM)
Low73 °F (May 15, 3:00 AM)40% (May 16, 1:00 PM)29.95 "Hg (May 19, 3:00 AM)
Average80 °F72%30.03 "Hg
* Reported May 10 11:00 AM — May 25 11:00 AM, Basse-Terre, Weather by CustomWeather, © 2015

Note: Actual official high and low records may vary slightly from our data, if they occured in-between our weather recording intervals... More about our weather records

Advertising

Basse-Terre weather history for previous 24 hours

 ConditionsComfort  
Time TempWeatherWind HumidityBarometerVisibility
11:00 AM
Mon, May 25
86 °FPartly sunny.15 mph49%30.04 "HgN/A
10:30 AM84 °FPartly sunny.15 mph58%30.04 "HgN/A
10:00 AM84 °FPartly sunny.15 mph58%30.04 "HgN/A
9:30 AM84 °FPartly sunny.13 mph58%30.04 "HgN/A
9:00 AM84 °FBroken clouds.13 mph62%30.04 "HgN/A
8:30 AM82 °FScattered clouds.10 mph66%30.04 "HgN/A
8:00 AM81 °FScattered clouds.13 mph70%30.04 "HgN/A
7:30 AM81 °FPassing clouds.9 mph74%30.04 "HgN/A
7:00 AM79 °FScattered clouds.6 mph84%30.04 "HgN/A
6:30 AM73 °FMild.No wind94%30.01 "HgN/A
6:00 AM73 °FMild.No wind89%30.01 "HgN/A
5:30 AM73 °FPassing clouds.No wind94%30.01 "HgN/A
5:00 AM73 °FPassing clouds.No wind89%30.01 "HgN/A
4:30 AM73 °FClear.2 mph89%30.01 "HgN/A
4:00 AM73 °FPassing clouds.3 mph94%30.01 "HgN/A
3:30 AM73 °FMild.No wind89%30.01 "HgN/A
3:00 AM73 °FMild.No wind89%30.01 "HgN/A
2:30 AM75 °FClear.2 mph83%30.01 "HgN/A
2:00 AM75 °FClear.2 mph83%30.01 "HgN/A
1:30 AM73 °FClear.2 mph89%30.01 "HgN/A
1:00 AM75 °FClear.3 mph83%30.01 "HgN/A
12:30 AM75 °FClear.3 mph83%30.04 "HgN/A
12:00 AM77 °FClear.5 mph83%30.04 "HgN/A
11:30 PM
Sun, May 24
77 °FPassing clouds.5 mph83%30.07 "HgN/A
11:00 PM77 °FClear.5 mph83%30.07 "HgN/A
10:30 PM77 °FClear.3 mph83%30.07 "HgN/A
10:00 PM79 °FClear.5 mph79%30.07 "HgN/A
9:30 PM77 °FPassing clouds.6 mph83%30.04 "HgN/A
9:00 PM79 °FClear.3 mph79%30.04 "HgN/A
8:30 PM79 °FOvercast.5 mph79%30.04 "HgN/A
8:00 PM79 °FOvercast.6 mph79%30.04 "HgN/A
7:30 PM79 °FOvercast.6 mph79%30.04 "HgN/A
7:00 PM77 °FPassing clouds.5 mph83%30.01 "HgN/A
6:30 PM77 °FPassing clouds.7 mph83%30.01 "HgN/A
6:00 PM79 °FBroken clouds.8 mph84%30.01 "HgN/A
5:30 PM79 °FPartly sunny.7 mph84%30.01 "HgN/A
5:00 PM81 °FPartly sunny.7 mph74%30.01 "HgN/A
4:30 PM82 °FPartly sunny.8 mph74%30.01 "HgN/A
4:00 PM81 °FMostly cloudy.8 mph79%30.01 "HgN/A
3:30 PM81 °FPartly sunny.5 mph79%30.01 "HgN/A
3:00 PM79 °FPartly sunny.7 mph84%30.01 "HgN/A
2:30 PM79 °FLight rain. Fog.8 mph79%30.01 "Hg3 mi
2:00 PM81 °FPartly sunny.7 mph70%30.01 "HgN/A
1:30 PM81 °FPartly sunny.9 mph79%30.01 "HgN/A
1:00 PM81 °FLight rain. Overcast.7 mph79%30.04 "HgN/A
12:30 PM79 °FPartly sunny.8 mph84%30.04 "HgN/A
12:00 PM77 °FLight rain. Broken clouds.10 mph89%30.07 "HgN/A
11:30 AM77 °FLight rain. Cloudy.13 mph89%30.07 "HgN/A
11:00 AM75 °FLight rain. Broken clouds.12 mph94%30.07 "HgN/A
Weather by CustomWeather, © 2015

See weather overviewHow to use our weather pages